Flag for Taiwan Weather past 2 weeks in Taipei, Taiwan

Now
86 °F

Passing clouds.


Feels Like: 91 °F
Forecast: 84 / 95 °F
Wind: 13 mph from East

Location: Sungshan / Taipei

Current Time: Jul 8, 2015 at 3:46:08 AM

Latest Report: Jul 8, 2015 at 3:00 AM


Visibility: N/A

Pressure: 29.45 "Hg

Humidity: 59%

Dew point: 70 °F

Location of TaipeiLocation

Historic Weather in Taipei — Graph

°F

Taipei temperature yesterday

Maximum temperature yesterday: 95 °F (at 11:30 AM)
Minimum temperature yesterday: 82 °F (at 2:00 AM)
Average temperature yesterday: 89 °F

Past Weeks' High & Low Weather Summary

 TemperatureHumidityPressure
High99 °F (Jun 26, 12:30 PM)94% (Jun 24, 2:53 PM)29.83 "Hg (Jun 24, 2:53 PM)
Low79 °F (Jun 24, 2:53 PM)39% (Jul 2, 1:00 PM)29.45 "Hg (Jul 6, 1:30 PM)
Average89 °F63%29.66 "Hg
* Reported Jun 23 2:00 AM — Jul 8 2:00 AM, Taipei, Weather by CustomWeather, © 2015

Note: Actual official high and low records may vary slightly from our data, if they occured in-between our weather recording intervals... More about our weather records

Advertising

Taipei weather history for previous 24 hours

 ConditionsComfort  
Time TempWeatherWind HumidityBarometerVisibility
2:00 AM
Wed, Jul 8
86 °FPassing clouds.17 mph62%29.47 "HgN/A
1:00 AM86 °FPassing clouds.18 mph62%29.47 "HgN/A
12:00 AM88 °FPassing clouds.17 mph52%29.50 "HgN/A
11:30 PM
Tue, Jul 7
88 °FPassing clouds.16 mph52%29.50 "HgN/A
11:00 PM88 °FPassing clouds.17 mph49%29.53 "HgN/A
10:30 PM88 °FPassing clouds.16 mph52%29.53 "HgN/A
10:00 PM88 °FPassing clouds.14 mph55%29.53 "HgN/A
9:30 PM88 °FPassing clouds.15 mph55%29.53 "HgN/A
9:00 PM88 °FPassing clouds.12 mph55%29.53 "HgN/A
8:30 PM88 °FPassing clouds.14 mph59%29.50 "HgN/A
8:00 PM88 °FPassing clouds.13 mph59%29.50 "HgN/A
7:30 PM88 °FPassing clouds.15 mph59%29.50 "HgN/A
7:00 PM88 °FPassing clouds.15 mph59%29.50 "HgN/A
6:30 PM90 °FScattered clouds.21 mph55%29.47 "HgN/A
6:00 PM90 °FScattered clouds.17 mph55%29.47 "HgN/A
5:30 PM91 °FScattered clouds.22 mph49%29.47 "HgN/A
5:00 PM91 °FPartly sunny.16 mph52%29.47 "HgN/A
4:30 PM93 °FPartly sunny.17 mph49%29.45 "HgN/A
4:00 PM93 °FPartly sunny.15 mph49%29.47 "HgN/A
3:30 PM93 °FPartly sunny.20 mph49%29.47 "HgN/A
3:00 PM91 °FBroken clouds.18 mph52%29.47 "HgN/A
2:30 PM93 °FPartly sunny.20 mph49%29.47 "HgN/A
2:00 PM95 °FPartly sunny.18 mph50%29.47 "HgN/A
1:30 PM95 °FPartly sunny.16 mph50%29.47 "HgN/A
1:00 PM95 °FPartly sunny.16 mph50%29.47 "HgN/A
12:30 PM95 °FPartly sunny.16 mph53%29.47 "HgN/A
12:00 PM95 °FBroken clouds.15 mph50%29.47 "HgN/A
11:30 AM95 °FScattered clouds.12 mph53%29.50 "HgN/A
10:30 AM93 °FScattered clouds.3 mph53%29.50 "HgN/A
10:00 AM93 °FScattered clouds.5 mph53%29.50 "HgN/A
9:30 AM91 °FScattered clouds.2 mph56%29.50 "HgN/A
9:00 AM90 °FScattered clouds.6 mph63%29.53 "HgN/A
8:30 AM90 °FScattered clouds.5 mph59%29.50 "HgN/A
8:00 AM88 °FScattered clouds.5 mph66%29.53 "HgN/A
7:30 AM88 °FPartly sunny.3 mph62%29.53 "HgN/A
7:00 AM86 °FPartly sunny.3 mph70%29.53 "HgN/A
6:30 AM86 °FBroken clouds.No wind66%29.50 "HgN/A
6:00 AM84 °FBroken clouds.1 mph70%29.50 "HgN/A
5:00 AM84 °FPassing clouds.3 mph70%29.47 "HgN/A
4:00 AM82 °FPassing clouds.7 mph74%29.47 "HgN/A
3:00 AM82 °FPassing clouds.7 mph74%29.47 "HgN/A
Weather by CustomWeather, © 2015

See weather overviewHow to use our weather pages